Location: Port Isabel Lighthouse State Historic Site
(26.0779°N, 97.2073°W)
Time: 19:41:30
(UTC-06:00)

LightSail 2 - Visible Passes

Search period start: 15 November 2019 00:00
Search period end: 25 November 2019 00:00
Orbit: 701 x 726 km, 24.0° (Epoch: 15 November)

Date Brightness Start Highest point End Pass type
(mag) Time Alt. Az. Time Alt. Az. Time Alt. Az.
15 Nov 7.7 03:49:44 17° E 03:49:44 17° E 03:50:56 10° E visible
15 Nov 5.3 05:28:43 29° W 05:31:15 64° S 05:36:25 10° ESE visible
16 Nov 5.8 04:34:26 53° SE 04:34:26 53° SE 04:38:32 10° E visible
16 Nov 6.0 06:13:50 10° W 06:18:45 44° SSW 06:23:42 10° ESE visible
17 Nov 8.1 03:40:09 12° E 03:40:09 12° E 03:40:37 10° E visible
17 Nov 5.6 05:19:08 36° WSW 05:20:53 52° SSW 05:25:57 10° ESE visible
18 Nov 6.4 04:24:51 37° SE 04:24:51 37° SE 04:28:07 10° ESE visible
18 Nov 6.4 06:03:50 10° W 06:08:19 31° SSW 06:12:52 10° SE visible
19 Nov 5.9 05:09:32 35° SW 05:10:27 38° SSW 05:15:16 10° SE visible
20 Nov 7.1 04:15:15 25° SE 04:15:15 25° SE 04:17:32 10° ESE visible
20 Nov 6.9 05:54:14 11° WSW 05:57:47 20° SSW 06:01:33 10° SSE visible
21 Nov 6.5 04:59:56 26° SSW 04:59:56 26° SSW 05:04:14 10° SE visible
22 Nov 7.7 04:05:39 15° SE 04:05:39 15° SE 04:06:41 10° SE visible
22 Nov 7.3 05:45:09 10° SW 05:47:10 12° SSW 05:49:12 10° S visible
23 Nov 7.2 04:50:21 16° S 04:50:21 16° S 04:52:36 10° SSE visible
24 Nov 7.2 19:48:39 10° SSW 19:50:39 17° S 19:50:39 17° S visible
